Pensacola NAS, FL

7:32 AM CST on November 19, 2017 (GMT -0600)
Pensacola Naval Air Station

Weather History for KNPA - December, 2012

Change the Weather History Date:

Tuesday, December 11, 2012

  Actual Average Record
Temperature  
Mean Temperature 48 °F -  
Max Temperature 54 °F 62 °F 77 °F (2015)
Min Temperature 43 °F 44 °F 36 °F (2014)
Degree Days  
Heating Degree Days 16    
Moisture  
Dew Point 42 °F    
Average Humidity 83    
Maximum Humidity 96    
Minimum Humidity 68    
Precipitation  
Precipitation 0.01 in - - ()
Sea Level Pressure  
Sea Level Pressure 30.02 in    
Wind  
Wind Speed 11 mph (North)    
Max Wind Speed 14 mph    
Max Gust Speed 22 mph    
Visibility 10 miles    
Events Rain    
Averages and records for this station are not official NWS values.
T = Trace of Precipitation, MM = Missing Value Source: NWS Daily Summary

Daily Weather History Graph

Daily Weather History Graph

Search for Another Location

Airport or City:

Trip Planner

Search our weather history database for the weather conditions in past years. The results will help you decide how hot, cold, wet, or windy it might be!

Date:

Astronomy

Dec. 11, 2012 Rise Set
Actual Time 6:36 AM CST 4:49 PM CST
Civil Twilight 6:09 AM CST 5:15 PM CST
Nautical Twilight 5:39 AM CST 5:45 PM CST
Astronomical Twilight 5:10 AM CST 6:15 PM CST
Moon 4:34 AM CST (12/11) 3:25 PM CST (12/11)
Length of Visible Light 11h 06m
Length of Day
10h 13m
Waning Crescent, 4% of the Moon is Illuminated
Dec 11
Waning Crescent
Dec 13
New
Dec 19
First Quarter
Dec 28
Full
Jan 4
Last Quarter

Hourly Weather History & Observations

Time (CST) Temp. Windchill Dew Point Humidity Pressure Visibility Wind Dir Wind Speed Gust Speed Precip Events Conditions
12:56 AM 54.0 °F - 51.1 °F 90% 29.91 in 10.0 mi North 11.5 mph - N/A   Overcast
1:04 AM 53.6 °F - 50.0 °F 88% 29.90 in 10.0 mi North 10.4 mph 19.6 mph N/A   Overcast
1:32 AM 51.8 °F - 50.0 °F 94% 29.92 in 10.0 mi North 11.5 mph 19.6 mph N/A   Overcast
1:56 AM 52.0 °F - 50.0 °F 93% 29.92 in 10.0 mi North 11.5 mph 20.7 mph N/A   Overcast
2:15 AM 51.8 °F - 48.2 °F 88% 29.91 in 9.0 mi North 9.2 mph 18.4 mph 0.00 in   Overcast
2:56 AM 50.0 °F - 48.9 °F 96% 29.93 in 10.0 mi NNW 10.4 mph 18.4 mph 0.00 in Rain Light Rain
3:56 AM 48.0 °F - 46.9 °F 96% 29.93 in 10.0 mi North 13.8 mph 18.4 mph 0.00 in   Overcast
4:56 AM 48.0 °F - 45.0 °F 89% 29.95 in 10.0 mi NNW 9.2 mph - N/A   Overcast
5:17 AM 46.4 °F 40.4 °F 42.8 °F 87% 29.95 in 10.0 mi NNW 13.8 mph 21.9 mph N/A   Overcast
5:47 AM 46.4 °F 41.1 °F 41.0 °F 81% 29.96 in 10.0 mi North 11.5 mph - N/A   Overcast
5:56 AM 46.9 °F - 41.0 °F 80% 29.99 in 10.0 mi North 13.8 mph - N/A   Overcast
6:56 AM 45.0 °F 40.1 °F 39.9 °F 82% 30.01 in 10.0 mi North 9.2 mph - N/A   Mostly Cloudy
7:56 AM 44.1 °F 38.1 °F 37.9 °F 79% 30.04 in 10.0 mi North 11.5 mph 17.3 mph N/A   Overcast
8:56 AM 45.0 °F 40.1 °F 39.0 °F 80% 30.06 in 10.0 mi North 9.2 mph - N/A   Overcast
9:56 AM 46.0 °F 40.6 °F 39.0 °F 76% 30.07 in 10.0 mi North 11.5 mph - N/A   Overcast
10:56 AM 48.0 °F - 39.0 °F 71% 30.07 in 10.0 mi North 10.4 mph - N/A   Overcast
11:56 AM 48.0 °F - 39.0 °F 71% 30.04 in 10.0 mi North 9.2 mph - N/A   Overcast
12:56 PM 48.9 °F - 39.9 °F 71% 30.03 in 10.0 mi North 6.9 mph - N/A   Overcast
1:56 PM 48.0 °F - 39.0 °F 71% 30.02 in 10.0 mi North 10.4 mph - N/A   Overcast
2:56 PM 48.0 °F - 39.9 °F 74% 30.03 in 10.0 mi North 9.2 mph - N/A   Overcast
3:56 PM 48.0 °F - 37.9 °F 68% 30.05 in 10.0 mi North 13.8 mph - N/A   Overcast
4:56 PM 46.9 °F - 37.0 °F 68% 30.05 in 10.0 mi NNE 12.7 mph - N/A   Overcast
5:56 PM 46.0 °F 41.0 °F 37.9 °F 73% 30.09 in 10.0 mi North 10.4 mph - N/A   Overcast
6:56 PM 45.0 °F 41.8 °F 39.0 °F 80% 30.12 in 10.0 mi North 5.8 mph - N/A   Overcast
7:22 PM 44.6 °F 40.2 °F 39.2 °F 81% 30.11 in 10.0 mi North 8.1 mph - 0.00 in Rain Light Rain
7:56 PM 44.1 °F 39.5 °F 41.0 °F 89% 30.12 in 10.0 mi North 8.1 mph - 0.01 in Rain Light Rain
8:56 PM 43.0 °F 38.8 °F 41.0 °F 93% 30.14 in 10.0 mi North 6.9 mph - 0.00 in Rain Light Rain
9:56 PM 43.0 °F 36.8 °F 41.0 °F 93% 30.13 in 9.0 mi NNE 11.5 mph - 0.00 in Rain Light Rain
10:56 PM 43.0 °F 39.5 °F 41.0 °F 93% 30.15 in 10.0 mi NE 5.8 mph - 0.00 in   Overcast
11:56 PM 43.0 °F 38.2 °F 41.0 °F 93% 30.13 in 10.0 mi North 8.1 mph - N/A   Clear